Location: Regona
(45.2000°N, 9.8167°E)
Time: 12:41:28
(UTC+00:00)

SL-4 R/B - Pass Details

Date: 07 June 2020
Orbit: 428 x 666 km, 51.6° (Epoch: 01 July)

Event Time Altitude Azimuth Distance (km) Brightness Sun altitude
Rises 01:08:09 0° 299° (WNW) 3,007 5.8 -17.7°
Reaches altitude 10° 01:10:32 10° 298° (WNW) 2,089 5.0 -17.5°
Maximum altitude 01:15:23 85° 211° (SSW) 660 2.3 -17.1°
Drops below altitude 10° 01:20:03 10° 123° (ESE) 2,009 4.8 -16.7°
Sets 01:22:18 0° 123° (ESE) 2,883 5.7 -16.5°
